Other Public Products
Issued by NWS Grand Forks, ND

Home | Current Version | Previous Version | Text Only | Print | Product List | Glossary Off
Versions: 1 2 3 4 5 6 7 8 9 10 11 12 13 14 15 16 17 18 19 20 21 22 23 24 25 26 27 28 29 30 31 32 33 34 35 36 37 38 39 40 41 42 43 44 45 46 47 48 49 50

000
FPUS83 KFGF 230910
OPUFGF
PRAIRIE TO PINES WEATHER ROUNDUP
NATIONAL WEATHER SERVICE EASTERN NORTH DAKOTA/GRAND FORKS ND
400 AM CDT MON OCT 23 2017

 **SATELLITE DATA USED TO AUGMENT SKY COVER AT AUTOMATED STATIONS**
 *****  WEATHER ACROSS EASTERN NORTH DAKOTA  *****

CITY           SKY/WX    TMP DP  RH WIND       PRES   REMARKS
GRAND FORKS    MOCLDY    53  42  66 W15       29.61R
GRAND FORKS AF CLEAR     52  37  58 NW18G29   29.62R
GRAND CITY NWS NOT AVBL
BUXTON         NOT AVBL
DEVILS LAKE    FAIR      46  36  68 W24G30    29.69R
FARGO          CLOUDY    53  44  71 W15       29.67R
WAHPETON ARPT  NOT AVBL
$$

 *****  WEATHER ACROSS CENTRAL AND WESTERN NORTH DAKOTA  *****

CITY           SKY/WX    TMP DP  RH WIND       PRES   REMARKS
JAMESTOWN      FAIR      51  38  60 W21G29    29.73R
BISMARCK       FAIR      50  37  61 W16G23    29.85R
MINOT          MOCLDY    44  35  70 W25G37    29.81R
MINOT AFB      MOCLDY    42  35  76 NW24G30   29.80R
GARRISON         N/A     45  34  65 NW16      29.83R
WILLISTON        N/A    N/A N/A N/A MISG      29.94R
DICKINSON      FAIR      44  35  70 W20       29.93R
HETTINGER      CLOUDY    45  35  68 W22G32    30.00R
$$

 *****  OTHER OBSERVATIONS NORTHEAST NORTH DAKOTA  *****

CITY           SKY/WX    TMP DP  RH WIND       PRES   REMARKS
WALHALLA       FAIR     N/A N/A N/A W15G22    29.59R
LANGDON        NOT AVBL
CAVALIER       FAIR      50  39  66 W15G22    29.58R
GRAFTON        NOT AVBL
CANDO          FAIR      43  39  87 W22       29.69R
FORT TOTTEN      N/A     47  36  65 NW14      29.95
ROLLA          CLOUDY    41  39  93 NW29      29.69R
RUGBY          NOT AVBL
 ***** THE ABOVE OBSERVATIONS ARE NON NWS ARE NOT QUALITY
        CONTROLLED AND MAY MIS-REPORT RAIN FOR SNOW...
$$

 *****  OTHER OBSERVATIONS SOUTHEAST NORTH DAKOTA *****

CITY           SKY/WX    TMP DP  RH WIND       PRES   REMARKS
COOPERSTOWN    FAIR      48  39  71 W15G24    29.69R
VALLEY CITY    NOT AVBL
OAKES          NOT AVBL
GWINNER        MOSUNNY   54  39  58 W15G23    29.74R
SHEYENNE NWR     N/A     54  40  59 W13       29.95S
BUFFALO        NOT AVBL
WYNDMERE       NOT AVBL
 ***** THE ABOVE OBSERVATIONS ARE NON NWS ARE NOT QUALITY
       CONTROLLED AND MAY MIS-REPORT RAIN FOR SNOW...
$$

  *****  WEATHER ACROSS NORTHERN MINNESOTA  *****

CITY           SKY/WX    TMP DP  RH WIND       PRES   REMARKS
FLAG ISLAND    FAIR      52  45  76 SE10      29.53F
WARROAD        FAIR      54  41  62 SW10G16   29.55S
ROSEAU         LGT RAIN  52  45  76 SW13      29.55R
HALLOCK        FAIR      48  39  71 W7        29.57R
THF RVR FALLS  LGT RAIN  51  46  83 W8        29.61S
HALSTAD        NOT AVBL
FOSSTON        CLOUDY    48  43  81 SW9       29.65R
BAUDETTE       CLOUDY    51  40  65 S13       29.57F
WASKISH        LGT RAIN  52  43  71 SW3       29.60F
CROOKSTON      MOCLDY    50  48  93 W13       29.62R
$$
  *****  WEATHER ACROSS CENTRAL AND WEST MINNESOTA  *****

CITY           SKY/WX    TMP DP  RH WIND       PRES   REMARKS
BEMIDJI        MOCLDY    51  38  60 S5        29.62S
PARK RAPIDS    FAIR      53  39  59 SW12      29.64S
WADENA         FAIR      54  39  58 SW12G17   29.66F
DETROIT LAKES  FAIR      54  41  62 W12G24    29.67S
MOORHEAD       CLOUDY    55  43  62 W13       29.68R
FERGUS FALLS   FAIR      55  43  62 W14       29.70S
ELBOW LAKE     PTSUNNY   56  42  59 W16G22    29.72S
MORRIS MN      FAIR      57  43  58 W14       29.72S
STAPLES        FAIR      54  36  50 SW10G16   29.68F
WHEATON        FAIR      57  39  51 W13G20    29.74S
$$
  *****  WEATHER ELSEWHERE ACROSS MINNESOTA  *****

CITY           SKY/WX    TMP DP  RH WIND       PRES   REMARKS
DULUTH         CLOUDY    52  33  48 S14G22    29.73F
INTRNTL FALLS  CLOUDY    54  34  46 S5        29.61F
ELY            CLOUDY    52  30  43 S9        29.70F
CLOQUET        CLOUDY    54  30  40 S9        29.74F
BRAINERD       MOCLDY    54  35  48 S15       29.70F
HIBBING        CLOUDY    50  33  52 S7        29.69F
ALEXANDRIA     CLOUDY    53  40  61 SW12      29.73F
SAINT CLOUD    CLOUDY    51  38  60 S8        29.75F
MINNEAPOLIS    MOCLDY    54  35  48 S8        29.81F
$$

  *****  WEATHER ACROSS SOUTH DAKOTA  *****

CITY           SKY/WX    TMP DP  RH WIND       PRES   REMARKS
SIOUX FALLS    FAIR      49  36  61 CALM      29.83F
BROOKINGS      FAIR      48  38  68 W8        29.82F
WATERTOWN      FAIR      53  43  68 W15       29.80R
HURON          FAIR      55  43  63 W21       29.87R
SISSETON         N/A     56  42  59 W20G35    29.73R
ABERDEEN       FAIR      52  41  66 W21G32    29.81R
MITCHELL       MOCLDY    57  42  57 W16       29.89R
PIERRE         FAIR      54  41  61 W21G26    29.96R
MOBRIDGE       FAIR      50  38  63 W23G31    29.87R
RAPID CITY     FAIR      51  21  30 NW31G45   30.11R
$$

  *****  SOME WEATHER IN NEARBY STATES *****

CITY           SKY/WX    TMP DP  RH WIND       PRES   REMARKS
GLASGOW MT     MOCLDY    43  33  68 W12       30.06R
GREAT FALLS MT FAIR      45  21  38 W22G32    30.24R
CHEYENNE WY    FAIR      53  28  38 NW28G40   30.20S
SCOTTSBLUFF NE FAIR      48  34  58 N28G45    30.19R
OMAHA NE       FAIR      46  36  68 SE9       29.87F
DES MOINES IA  FAIR      46  41  82 S10       29.93F
DAVENPORT IA   FOG       45  44  97 CALM      29.99F VSB 1/4
CHICAGO IL     LGT RAIN  51  49  92 N8        29.94F FOG
EAU CLAIRE WI  CLOUDY    47  42  83 S5        29.88F
LA CROSSE WI   FAIR      47  44  90 SE9       29.92F
$$

  *****  SOME NATIONAL WEATHER *****

CITY           SKY/WX    TMP DP  RH WIND       PRES   REMARKS
LA GUARDIA NY  MOCLDY    62  60  93 CALM      30.32S
RALEIGH NC     MOCLDY    63  61  93 SE8       30.21F
ATLANTA GA     LGT RAIN  68  68 100 SE10G17   29.98F FOG
NEW ORLEANS LA FAIR      64  61  90 NW7       30.01F
OKLAHOMA CITY  FAIR      49  39  68 VRB3      30.07F
ALBUQUERQUE NM FAIR      58  22  24 N8        30.37S
SALT LAKE CITY FAIR      51  35  54 CALM      30.45R
LOS ANGELES CA FAIR      72  42  34 VRB3      30.05S
BOISE ID       FAIR      43  41  93 CALM      30.49R FOG
SEATTLE WA     MOCLDY    50  46  86 SE5       30.52R
$$

*** WEATHER ACROSS MANITOBA...SASKATCHEWAN AND ONTARIO ***
                ***ONTARIO***

CITY           SKY/WX    TMP DP  RH WIND       PRES   REMARKS
GERALDTON      MOCLDY    43  41  93 S7        29.80F
THUNDER BAY    CLOUDY    55  39  54 S15       29.77F
SIOUX LOOKOUT  MOCLDY    52  36  54 S8        29.60F
TORONTO        PTCLDY    59  55  88 SE5       30.04F
BIG TROUT LK   CLOUDY    41  34  75 W14G22    29.53R
PICKLE LAKE    NOT AVBL
DRYDEN         CLEAR     50  37  62 S8        29.59S
KENORA         PTCLDY    48  39  71 S5        29.56S
$$
                *** MANITOBA***

CITY           SKY/WX    TMP DP  RH WIND       PRES   REMARKS
BRANDON        LGT RAIN  41  39  93 NW14G23   29.73R
DAUPHIN        CLEAR     34  32  93 W7        29.76R
ISLAND LAKE    CLOUDY    39  32  75 NW13G22   29.58R
PILOT MOUND      N/A     43  37  81 NW16G22     N/A
THE PAS        CLOUDY    37  27  65 NW17      29.71R
THOMPSON       FLURRIES  32  30  93 W8        29.57R WCI  25
WINNIPEG       MOCLDY    43  39  87 N10       29.59R
LYNN LAKE      MOCLDY    30  28  93 NW8       29.63R WCI  23
CHURCHILL      CLOUDY    30  28  93 NW38G52   29.16R WCI  14
GILLAM         FLURRIES  32  28  86 NW20G30   29.44R WCI  20
$$
                ***SASKATCHEWAN***

CITY           SKY/WX    TMP DP  RH WIND       PRES   REMARKS
ESTEVAN        PTCLDY    39  36  87 NW15      29.88R
KINDERSLEY     PTCLDY    34  30  86 W8        29.99R
LLOYDMINSTER   CLEAR     37  32  81 W15G21    29.92R
PRINCE ALBERT  CLOUDY    34  32  93 W9        29.84R FOG
REGINA         CLOUDY    37  36  93 W16       29.91R
YORKTON        CLOUDY    36  34  93 W14G20    29.80R


USA.gov is the U.S. government's official web portal to all federal, state and local government web resources and services.